User: anonymous   Login
Location: Fisheating Creek Campgrounds
(26.9333°N, 81.3167°W)
Time: 23:14:08
(UTC-05:00)
Language:

NATO 3D Rocket - Orbit

View from above orbital plane
View from above orbital plane
View from above satellite
View from above satellite

Ground track
Ground track

The orbit data is extracted from the following two-line orbital elements,

1 15392U 84115B   16040.44917116  .00000282  00000-0  11545-3 0  9994
2 15392  21.4993  47.2626 1034329 309.3941  41.9233 12.45518799422403
Epoch (UTC): 09 February 2016 10:46:48
Eccentricity: 0.1034329
inclination: 21.4993°
perigee height: 670 km
apogee height: 2296 km
right ascension of ascending node: 47.2626°
argument of perigee: 309.3941°
revolutions per day: 12.45518799
mean anomaly at epoch: 41.9233°
orbit number at epoch: 42240

The dashed part of the orbit path shows where the satellite is in the earth's shadow,  

DLR